This is the latest recevied weather packets stored in our database for station/object F5ZQC-13. If no packets are shown the sender has not sent any weather packets the latest 1 day(s).
| Time | Temp. | Humidity | Pressure | Rain* | Wind** | Luminosity | Snow |
|---|---|---|---|---|---|---|---|
| 1778022078 | 12.22° C | 58% | 1010.2 hPa | 0 mm | 2.24 m/s, 337° | - | - |
| 1778021955 | 12.22° C | 56% | 1010.1 hPa | 0 mm | 1.34 m/s, 315° | - | - |
| 1778021834 | 12.22° C | 55% | 1010.2 hPa | 0 mm | 1.79 m/s, 315° | - | - |
| 1778021589 | 12.22° C | 57% | 1009.9 hPa | 0 mm | 0.45 m/s, 292° | - | - |
| 1778021221 | 12.22° C | 53% | 1010.2 hPa | 0 mm | 0.45 m/s, 315° | - | - |
| 1778021103 | 12.22° C | 57% | 1010.5 hPa | 0 mm | 0.45 m/s, 0° | - | - |
| 1778020977 | 12.22° C | 58% | 1010.2 hPa | 0 mm | 0.45 m/s, 281° | - | - |
| 1778020658 | 12.22° C | 57% | 1010 hPa | 0 mm | 0.45 m/s, 337° | - | - |
| 1778020614 | 12.22° C | 57% | 1010 hPa | 0 mm | 0.45 m/s, 337° | - | - |
| 1778020491 | 12.22° C | 58% | 1010.1 hPa | 0 mm | 0.89 m/s, 315° | - | - |
| 1778020246 | 12.22° C | 57% | 1010.3 hPa | 0 mm | 0.89 m/s, 337° | - | - |
| 1778019391 | 12.22° C | 57% | 1010.3 hPa | 0 mm | 0.89 m/s, 270° | - | - |
| 1778019266 | 12.22° C | 56% | 1010.3 hPa | 0 mm | 0.45 m/s, 270° | - | - |
| 1778019023 | 12.22° C | 56% | 1010.2 hPa | 0 mm | 0.45 m/s, 281° | - | - |
| 1778018900 | 12.22° C | 56% | 1010.3 hPa | 0 mm | 0 m/s | - | - |
| 1778018778 | 12.22° C | 59% | 1010.3 hPa | 0 mm | 0.89 m/s, 292° | - | - |
| 1778018654 | 12.22° C | 56% | 1010 hPa | 0 mm | 0.89 m/s, 292° | - | - |
| 1778018535 | 12.22° C | 58% | 1010.5 hPa | 0 mm | 0 m/s | - | - |
| 1778018411 | 12.22° C | 57% | 1010.5 hPa | 0 mm | 0 m/s | - | - |
| 1778018337 | 12.22° C | 57% | 1010.4 hPa | 0 mm | 0.45 m/s, 292° | - | - |
| 1778018294 | 12.22° C | 57% | 1010.4 hPa | 0 mm | 0.45 m/s, 292° | - | - |
| 1778018043 | 12.22° C | 57% | 1010.3 hPa | 0 mm | 0 m/s | - | - |
| 1778017801 | 11.67° C | 54% | 1010 hPa | 0 mm | 0.45 m/s, 292° | - | - |
| 1778017680 | 11.67° C | 57% | 1010.4 hPa | 0 mm | 0.45 m/s, 303° | - | - |
| 1778017552 | 11.67° C | 57% | 1010.7 hPa | 0 mm | 0 m/s | - | - |
* Rain since midnight (hover to see other rain measurements)
** Current wind speed in m/s (hover to see current wind gust speed)